User: anonymous   Login
Location: North Mitre
(40.7833°S, 175.4667°E)
Time: 11:37:47
(UTC+00:00)
Language:

YAOGAN 11 - Orbit

View from above orbital plane
View from above orbital plane
View from above satellite
View from above satellite

Ground track
Ground track

The orbit data is extracted from the following two-line orbital elements,

1 37165U 10047A   24277.08698009  .00007632  00000-0  10102-2 0  9990
2 37165  98.4368 101.1443 0037341  77.0076 283.5299 14.79742209756002
Epoch (UTC): 03 October 2024 02:05:15
Eccentricity: 0.0037341
inclination: 98.4368°
perigee height: 604 km
apogee height: 656 km
right ascension of ascending node: 101.1443°
argument of perigee: 77.0076°
revolutions per day: 14.79742209
mean anomaly at epoch: 283.5299°
orbit number at epoch: 75600

The dashed part of the orbit path shows where the satellite is in the earth's shadow,  

DLR